sat.trackr.live / text

‹ back to catalog

JILIN-01 KUANFU 02B 5

NORAD 61193 · 2024-169E

PAYLOAD ACTIVE UNKNOWN

§ Identity

Operator
Country
PRC
Launch date
2024-09-20
Launch site
TAISC
Launch vehicle
Mass (kg)
RCS (m²)

External: N2YO · Heavens-Above · Gunter

§ Orbital elements

Epoch: 2026-09-22T20:34:19.227072Z

Period
95.40 min
Inclination
97.5551°
Eccentricity
0.0011983
Mean motion
15.09462423 rev/d
Perigee alt
529.6 km
Apogee alt
546.1 km
Semi-major
6,916.0 km
B*
1.7146e-4
RAAN
354.0494°
Arg perigee
320.1934°
Mean anomaly
39.8414°
Rev number
11,056

§ Raw data

JILIN-01 KUANFU 02B 51 61193U 24169E   26265.85716698  .00002685  00000+0  17146-3 0  99952 61193  97.5551 354.0494 0011983 320.1934  39.8414 15.09462423110565

JSON: /api/v1/satellites/61193 · /tle

For live sub-satellite position, see the globe view (requires WebGL).

§ Visibility from observer

Set your observer location to see the next 7 days of passes ≥ 10°. The values pass through the URL so the page stays shareable.

No JS? Fill the form by hand. The geolocation button needs JavaScript.